Погода в Таскаеве

Россия / Кемеровская область (Кузбасс)     55°42′00″N   84°38′57″E
темп.,
°C
ветер,
м/с
пор.,
м/с
влажн.,
%
обл.,
%
осадки,
мм/ч
давл.,
гПа
погр.,
м
18 апреля, вс
вс1801:00−5ю4883100 0.0 1021156
04:00−2ююз41084100 0.0 1018342
07:00−1ююз61281100 0.0 1016486
10:00+1юз7137963 0.0 1014713
13:00+3юз71278100 0.0 10131049
16:00+4юз61183100 0.1 10121012
19:00+3ююз71379100 0.1 1009675
22:00+2ю71497100 0.5 1004527
19 апреля, пн
пн1901:00+2юз81597100 1.2 1000674
04:00+2зюз10159461 0.6 9971017
07:00−7сз111589100 1.4 10051109
10:00−8сз101274100 0.4 10141111
13:00−6сз81057100 0.4 10191577
16:00−5сз7960100 0.1 10211742
19:00−6сз7961100 0.2 10231547
22:00−6зсз586819 0.1 10241134
20 апреля, вт
вт2001:00−6сз6868100 0.1 10251199
04:00−7сз577032 0.0 1025879
07:00−8сз567363 0.0 1026618
10:00−6зсз4562100 0.0 1027992
13:00−3зсз455083 0.0 10261318
16:00−1зсз4642100 0.0 10251816
19:00−1з454379 0.0 10241651
22:00−3зюз1259100 0.0 102424
21 апреля, ср
ср2101:00−3юз4756100 0.0 1023637
04:00−3ююз3656100 0.0 10221109
07:00−3ююз4766100 0.0 10221014
10:00−2ю4665100 0.1 10221039
13:000ю4561100 0.3 10231229
16:00+1юв2354100 0.2 10231237
19:00+1всв2358100 0.3 1025520
22:00−1св487489 0.0 1027252
22 апреля, чт
чт2201:00−2св37845 0.0 1029270
04:00−3ссв488149 0.0 1031290
07:00−3ссв59845 0.0 1034378
10:000св685580 0.0 10361286
13:00+2ссв6742100 0.1 10372068
16:00+3ссв6743100 0.0 10381971
19:00+2ссв5757100 0.1 1040916
22:00−1ссв497934 0.1 1042247